TimeEDT,TemperatureF,Dew PointF,Humidity,Sea Level PressureIn,VisibilityMPH,Wind Direction,Wind SpeedMPH,Gust SpeedMPH,PrecipitationIn,Events,Conditions,WindDirDegrees,DateUTC
12:03 AM,41.0,37.4,87,30.16,10.0,Calm,Calm,-,N/A,,Clear,0,2012-10-22 04:03:00
12:24 AM,39.2,37.4,93,30.16,10.0,Calm,Calm,-,N/A,,Clear,0,2012-10-22 04:24:00
12:45 AM,39.2,37.4,93,30.16,10.0,Calm,Calm,-,N/A,,Clear,0,2012-10-22 04:45:00
1:06 AM,39.2,37.4,93,30.15,10.0,Calm,Calm,-,N/A,,Clear,0,2012-10-22 05:06:00
1:51 AM,37.4,37.4,100,30.16,7.0,Calm,Calm,-,N/A,,Clear,0,2012-10-22 05:51:00
2:54 AM,37.4,35.6,93,30.16,7.0,Calm,Calm,-,N/A,,Clear,0,2012-10-22 06:54:00
3:57 AM,35.6,35.6,100,30.16,7.0,Calm,Calm,-,N/A,,Clear,0,2012-10-22 07:57:00
4:18 AM,35.6,33.8,93,30.17,7.0,Calm,Calm,-,N/A,,Clear,0,2012-10-22 08:18:00
4:42 AM,35.6,35.6,100,30.17,7.0,Calm,Calm,-,N/A,,Clear,0,2012-10-22 08:42:00
5:03 AM,35.6,33.8,93,30.17,7.0,Calm,Calm,-,N/A,,Clear,0,2012-10-22 09:03:00
5:45 AM,35.6,33.8,93,30.18,7.0,Calm,Calm,-,N/A,,Clear,0,2012-10-22 09:45:00
6:06 AM,35.6,33.8,93,30.19,7.0,Calm,Calm,-,N/A,,Clear,0,2012-10-22 10:06:00
6:27 AM,35.6,33.8,93,30.19,7.0,Calm,Calm,-,N/A,,Clear,0,2012-10-22 10:27:00
7:09 AM,33.8,33.8,100,30.20,5.0,Calm,Calm,-,N/A,,Clear,0,2012-10-22 11:09:00
7:30 AM,35.6,33.8,93,30.21,4.0,Calm,Calm,-,N/A,,Clear,0,2012-10-22 11:30:00
7:51 AM,33.8,33.8,100,30.21,5.0,Calm,Calm,-,N/A,,Clear,0,2012-10-22 11:51:00
8:12 AM,35.6,35.6,100,30.22,5.0,Calm,Calm,-,N/A,,Clear,0,2012-10-22 12:12:00
8:36 AM,39.2,37.4,93,30.23,7.0,Calm,Calm,-,N/A,,Clear,0,2012-10-22 12:36:00
8:57 AM,42.8,41.0,93,30.23,7.0,Calm,Calm,-,N/A,,Clear,0,2012-10-22 12:57:00
9:12 AM,44.6,44.6,100,30.22,10.0,Calm,Calm,-,N/A,,Clear,0,2012-10-22 13:12:00
9:42 AM,53.6,44.6,72,30.22,10.0,Calm,Calm,-,N/A,,Unknown,0,2012-10-22 13:42:00
10:03 AM,55.4,44.6,67,30.23,10.0,WNW,4.6,-,N/A,,Clear,290,2012-10-22 14:03:00
10:24 AM,59.0,42.8,55,30.23,10.0,West,8.1,-,N/A,,Clear,270,2012-10-22 14:24:00
10:45 AM,60.8,41.0,48,30.22,10.0,West,8.1,-,N/A,,Clear,280,2012-10-22 14:45:00
11:06 AM,62.6,41.0,45,30.21,10.0,WNW,8.1,-,N/A,,Clear,290,2012-10-22 15:06:00
11:27 AM,62.6,41.0,45,30.21,10.0,West,9.2,-,N/A,,Clear,280,2012-10-22 15:27:00
11:51 AM,64.4,41.0,42,30.21,10.0,WNW,8.1,-,N/A,,Clear,300,2012-10-22 15:51:00
12:12 PM,64.4,39.2,40,30.20,10.0,WSW,9.2,-,N/A,,Clear,250,2012-10-22 16:12:00
12:33 PM,66.2,39.2,37,30.20,10.0,West,5.8,-,N/A,,Clear,270,2012-10-22 16:33:00
12:54 PM,66.2,41.0,40,30.19,10.0,WNW,3.5,-,N/A,,Clear,300,2012-10-22 16:54:00
1:15 PM,68.0,39.2,35,30.17,10.0,WNW,8.1,-,N/A,,Clear,290,2012-10-22 17:15:00
1:36 PM,68.0,41.0,37,30.17,10.0,West,3.5,-,N/A,,Clear,270,2012-10-22 17:36:00
1:57 PM,68.0,39.2,35,30.16,10.0,WNW,4.6,-,N/A,,Clear,290,2012-10-22 17:57:00
2:18 PM,68.0,37.4,33,30.15,10.0,WNW,8.1,-,N/A,,Clear,300,2012-10-22 18:18:00
2:39 PM,69.8,37.4,31,30.15,10.0,West,9.2,-,N/A,,Clear,280,2012-10-22 18:39:00
3:00 PM,69.8,35.6,28,30.14,10.0,WNW,6.9,-,N/A,,Clear,300,2012-10-22 19:00:00
3:21 PM,69.8,35.6,28,30.14,10.0,West,4.6,-,N/A,,Clear,260,2012-10-22 19:21:00
3:42 PM,69.8,35.6,28,30.13,10.0,WNW,8.1,-,N/A,,Clear,290,2012-10-22 19:42:00
4:06 PM,69.8,35.6,28,30.13,10.0,West,11.5,-,N/A,,Clear,270,2012-10-22 20:06:00
4:27 PM,68.0,37.4,33,30.13,10.0,WSW,6.9,-,N/A,,Clear,250,2012-10-22 20:27:00
4:48 PM,68.0,37.4,33,30.13,10.0,West,10.4,-,N/A,,Clear,270,2012-10-22 20:48:00
5:09 PM,66.2,39.2,37,30.13,10.0,West,9.2,-,N/A,,Clear,270,2012-10-22 21:09:00
5:30 PM,64.4,41.0,42,30.13,10.0,WNW,5.8,-,N/A,,Clear,300,2012-10-22 21:30:00
5:51 PM,62.6,42.8,48,30.13,10.0,WNW,3.5,-,N/A,,Clear,290,2012-10-22 21:51:00
6:12 PM,59.0,44.6,59,30.13,10.0,Calm,Calm,-,N/A,,Clear,0,2012-10-22 22:12:00
6:33 PM,55.4,46.4,72,30.13,10.0,Calm,Calm,-,N/A,,Clear,0,2012-10-22 22:33:00
6:54 PM,53.6,44.6,72,30.13,10.0,Calm,Calm,-,N/A,,Clear,0,2012-10-22 22:54:00
7:15 PM,51.8,44.6,76,30.14,10.0,Calm,Calm,-,N/A,,Clear,0,2012-10-22 23:15:00
7:36 PM,51.8,46.4,82,30.15,10.0,Calm,Calm,-,N/A,,Clear,0,2012-10-22 23:36:00
8:21 PM,50.0,44.6,82,30.15,10.0,Calm,Calm,-,N/A,,Clear,0,2012-10-23 00:21:00
8:42 PM,48.2,44.6,87,30.15,10.0,Calm,Calm,-,N/A,,Clear,0,2012-10-23 00:42:00
9:03 PM,46.4,44.6,93,30.15,10.0,Calm,Calm,-,N/A,,Clear,0,2012-10-23 01:03:00
9:24 PM,46.4,44.6,93,30.16,10.0,Calm,Calm,-,N/A,,Clear,0,2012-10-23 01:24:00
9:45 PM,46.4,44.6,93,30.16,10.0,Calm,Calm,-,N/A,,Clear,0,2012-10-23 01:45:00
10:06 PM,46.4,44.6,93,30.15,10.0,Calm,Calm,-,N/A,,Clear,0,2012-10-23 02:06:00
10:48 PM,44.6,42.8,93,30.15,10.0,Calm,Calm,-,N/A,,Clear,0,2012-10-23 02:48:00
11:09 PM,44.6,42.8,93,30.15,10.0,Calm,Calm,-,N/A,,Clear,0,2012-10-23 03:09:00
11:30 PM,44.6,42.8,93,30.15,10.0,Calm,Calm,-,N/A,,Clear,0,2012-10-23 03:30:00
11:51 PM,44.6,42.8,93,30.14,10.0,Calm,Calm,-,N/A,,Clear,0,2012-10-23 03:51:00